THORAD AGENA D DEB, 4645

Orbit data source: Space-Track

THORAD AGENA D DEB, 4645 is space debris in SSO originally from a launch on Wed, 08 Apr 1970 UTC launched from the Air Force Western Test Range (AFWTR). Debris objects in space refer to the collection of defunct objects orbiting the Earth. Examples of debris include non-operational satellites, rocket bodies, and fragments generated from explosions, collisions, or faulty payload assembly.

Loading next visibility...
Identifier
4645, 1970-025AD
Orbit
SSO
Last TLE update
7 hours ago
Origin
Manufacturer
Unknown
Mission
Spacecraft
Bus & Motor
Unknown
Mass
Unknown
Launch date (UTC)
1970-04-08 (55 years ago)
Launch vehicle
Unknown
Launch site
Air Force Western Test Range (AFWTR)
Object type
Payload
Rocket body
Debris
Shape & HBR
Unknown
Radar Cross Section
Small (<0.1 m²)

Expand to show TLE details & history

TLE from 7 hours ago
0 THORAD AGENA D DEB
1 04645U 70025AD  25128.93380322 -.00000036  00000-0  47790-6 0  9994
2 04645  99.9301 218.1087 0329038  57.8470 354.0583 12.86522130583447
Epoch: 2025-05-08T22:24Z
Definitive object data (Epoch: 2025-05-08T22:24:40.598Z)
Latitude
50.52999°
Longitude
2.73196°
Altitude
1,071.558 km
Speed
7.44 km/s
True Right ascension
13h 43m 35s
True Declination
50° 22' 06"
Sunlit
Object was in daylight at TLE epoch
Visualization TLE readout
Latitude
-19.6988°
Longitude
18.78229°
Altitude
1,257.823 km
Speed
7.256 km/s
Apparent Right ascension
16h 46m 22s
Apparent Declination
-66° 30' 37"
Sunlit
Object is in full shadow
Visualization observer readout
Local Sidereal Time
13:40:07
Azimuth
161.78° S
Elevation
-22.228°
Doppler factor
1
Orbital elements
Apogee altitude
1,565.812 km
Perigee altitude
1,059.693 km
Semi-major axis
7,690.889 km
Eccentricity
0.0329038
Inclination
99.9301°
RAAN
218.1087°
Arg. of periapsis
57.847°
True anomaly
353.65138°
Mean anomaly
354.0583°
Eccentric anomaly
353.85654°
Mean motion
3.21794 °/min
BSTAR
4.779e-7
Orbital period
111.87 mins
Loading maneuver chart data...
Loading SW <> Apogee altitude chart data...

THORAD AGENA D DEB Visibility forecast

Observer location: undefined°, undefined°

Span
Click to sort rows by Start time (UTC) header in descending order
Start Az.
Max El. time (UTC)
Max El. Az.
Max El.
End time (UTC)
End Az.
12 mins2025-05-09 05:43:26.384Z161.964° S2025-05-09 05:49:26.384Z85.488° E44.977°2025-05-09 05:55:26.384Z345.608° N
10 mins2025-05-09 17:27:26.384Z53.205° ENE2025-05-09 17:31:26.384Z93.14° ESE22.142°2025-05-09 17:37:26.384Z144.595° SSE
13 mins2025-05-09 19:16:26.384Z6.259° NNE2025-05-09 19:22:26.384Z275.473° WNW41.947°2025-05-09 19:29:26.384Z210.956° SW
7 mins2025-05-10 04:12:26.384Z89.102° E2025-05-10 04:15:26.384Z56.893° ENE17.738°2025-05-10 04:19:26.384Z17.338° NNE
|